F5LKO-13 Weather Reports


time (UTC)temp
F
wind
direction
speed
knots
gust
knots
rain 1hr
in
rain 24hr
in
rain mn
in
humidity
%
barometer
mb
20260510070024 73 1.7 5.2 0.00 0.00 0.00 99 1010.4
20260510065508 73 0.9 2.6 0.00 0.00 0.00 99 1010.4
20260510065002 74 1.7 4.3 0.00 0.00 0.00 99 1010.3
20260510064456 77 0.9 3.5 0.00 0.00 0.00 99 1010.2
20260510063951 77 0.0 0.9 0.00 0.00 0.00 99 1010.2
20260510063445 74 0.0 0.0 0.00 0.00 0.00 99 1010.2
20260510062948 73 0.9 1.7 0.00 0.00 0.00 99 1010.2
20260510062433 68 0.0 0.0 0.00 0.00 0.00 99 1010.1
20260510061926 62 0.0 0.0 0.00 0.00 0.00 99 1010.1
20260510061421 60 0.0 0.0 0.00 0.00 0.00 99 1010.0
20260510060915 60 0.0 0.0 0.00 0.00 0.00 99 1010.0
20260510060409 60 0.0 0.9 0.00 0.00 0.00 99 1010.0
20260510055912 59 0.0 0.0 0.00 0.00 0.00 99 1010.0
20260510055356 59 0.0 0.0 0.00 0.00 0.00 99 1009.9
20260510054850 58 0.0 0.0 0.00 0.00 0.00 99 1010.0
20260510054344 58 0.0 0.0 0.00 0.00 0.00 99 1009.9
20260510053838 58 0.0 0.0 0.00 0.00 0.00 99 1009.9
20260510053333 58 0.0 0.0 0.00 0.00 0.00 99 1010.0
20260510052835 58 0.0 0.0 0.00 0.00 0.00 99 1009.9
20260510052321 58 0.0 0.0 0.00 0.00 0.00 99 1009.9
20260510051815 56 0.0 0.0 0.00 0.00 0.00 99 1009.9
20260510051309 56 0.0 0.0 0.00 0.00 0.00 99 1009.9
20260510050803 55 0.0 0.0 0.00 0.00 0.00 99 1009.9
20260510050257 55 0.0 0.0 0.00 0.00 0.00 99 1009.8
20260510045758 55 0.0 0.0 0.00 0.00 0.00 99 1009.9
20260510045244 55 0.0 0.0 0.00 0.00 0.00 99 1009.8
20260510044738 55 0.0 0.0 0.00 0.00 0.00 99 1009.9
20260510044232 54 0.0 0.0 0.00 0.00 0.00 99 1009.8
20260510043726 54 0.0 0.0 0.00 0.00 0.00 99 1009.9
20260510043220 54 0.0 0.0 0.00 0.00 0.00 99 1009.8
20260510042723 55 0.0 0.0 0.00 0.00 0.00 99 1009.7
20260510042207 55 0.0 0.0 0.00 0.00 0.00 99 1009.8
20260510041701 55 0.0 0.0 0.00 0.00 0.00 99 1009.7
20260510041156 55 0.0 0.0 0.00 0.00 0.00 99 1009.7
20260510040650 55 0.0 0.0 0.00 0.00 0.00 99 1009.7
20260510040144 56 0.0 0.0 0.00 0.00 0.00 99 1009.7
20260510035648 56 0.0 0.0 0.00 0.00 0.00 99 1009.8
20260510035133 56 0.0 0.0 0.00 0.00 0.00 99 1009.8
20260510034627 56 0.0 0.0 0.00 0.00 0.00 99 1009.8
20260510034121 56 0.0 0.0 0.00 0.00 0.00 99 1009.8
20260510033616 56 0.0 0.0 0.00 0.00 0.00 99 1009.8
20260510033110 56 0.0 0.0 0.00 0.00 0.00 99 1009.8
20260510032612 56 0.0 0.0 0.00 0.00 0.00 99 1009.8
20260510032058 56 0.0 0.0 0.00 0.00 0.00 99 1009.9
20260510031552 56 0.0 0.0 0.00 0.00 0.00 99 1009.9
20260510031046 56 0.0 0.0 0.00 0.00 0.00 99 1009.9
20260510030540 56 0.0 0.0 0.00 0.00 0.00 99 1009.9
20260510030034 56 0.0 0.0 0.00 0.00 0.00 99 1010.0
20260510025538 56 0.0 0.0 0.00 0.00 0.00 99 1010.0
20260510025024 56 0.0 0.0 0.00 0.00 0.00 99 1010.0
20260510024518 56 0.0 0.0 0.00 0.00 0.00 99 1010.1
20260510024012 56 0.0 0.0 0.00 0.00 0.00 99 1010.1
20260510023506 56 0.0 0.0 0.00 0.00 0.00 99 1010.1
20260510023000 56 0.0 0.0 0.00 0.00 0.00 99 1010.0
20260510022502 56 0.0 0.0 0.00 0.00 0.00 99 1010.1
20260510021947 56 0.0 0.0 0.00 0.00 0.00 99 1010.1
20260510021441 56 0.0 0.0 0.00 0.00 0.00 99 1010.1
20260510020936 56 0.0 0.0 0.00 0.00 0.00 99 1010.2
20260510020430 56 0.0 0.0 0.00 0.00 0.00 99 1010.2
20260510015924 56 0.0 0.0 0.00 0.00 0.00 99 1010.2
20260510015425 56 0.0 0.0 0.00 0.00 0.00 99 1010.3
20260510014910 56 0.0 0.0 0.00 0.00 0.00 99 1010.3
20260510014405 56 0.0 0.0 0.00 0.00 0.00 99 1010.2
20260510013859 56 0.0 0.0 0.00 0.00 0.00 99 1010.2
20260510013353 56 0.0 0.0 0.00 0.00 0.00 99 1010.3
20260510012847 56 0.0 0.0 0.00 0.00 0.00 99 1010.2
20260510012349 56 0.0 0.0 0.00 0.00 0.00 99 1010.3
20260510011835 56 0.0 0.0 0.00 0.00 0.00 99 1010.3
20260510011329 56 0.0 0.0 0.00 0.00 0.00 99 1010.2
20260510010823 56 0.0 0.0 0.00 0.00 0.00 99 1010.3
20260510010317 56 0.0 0.0 0.00 0.00 0.00 99 1010.3
20260510005810 56 0.0 0.0 0.00 0.00 0.00 99 1010.4
20260510005312 56 0.0 0.0 0.00 0.00 0.00 99 1010.4
20260510004757 56 0.0 0.0 0.00 0.00 0.00 99 1010.5
20260510004252 56 0.0 0.0 0.00 0.00 0.00 99 1010.4
20260510003746 56 0.0 0.0 0.00 0.00 0.00 99 1010.4
20260510003240 56 0.0 0.0 0.00 0.00 0.00 99 1010.4
20260510002734 56 0.0 0.0 0.00 0.00 0.00 99 1010.4
20260510002236 57 0.0 0.0 0.00 0.00 0.00 99 1010.4
20260510001722 57 0.0 0.0 0.00 0.00 0.00 99 1010.3
20260510001216 57 0.0 0.0 0.00 0.00 0.00 99 1010.3
20260510000710 58 0.0 0.0 0.00 0.00 0.00 99 1010.2
20260510000204 58 0.0 0.0 0.00 0.00 0.00 99 1010.3
20260509235659 58 0.0 0.0 0.00 0.00 0.02 99 1010.3
20260509235202 58 0.0 0.0 0.00 0.00 0.02 99 1010.3
20260509234647 58 0.0 0.0 0.00 0.00 0.02 99 1010.3
20260509234141 58 0.0 0.0 0.00 0.00 0.02 99 1010.4
20260509233635 58 0.0 0.0 0.00 0.00 0.02 99 1010.5
20260509233129 58 0.0 0.0 0.00 0.00 0.02 99 1010.5
20260509232623 58 0.0 0.0 0.00 0.00 0.02 99 1010.6
20260509232125 58 0.0 0.0 0.00 0.00 0.02 99 1010.6
20260509231104 59 0.0 0.9 0.00 0.00 0.02 99 1010.7
20260509230558 59 0.0 0.0 0.00 0.00 0.02 99 1010.6
20260509230050 59 0.0 0.9 0.00 0.00 0.02 99 1010.6
20260509225544 60 0.0 0.0 0.00 0.00 0.02 99 1010.8
20260509225046 60 0.0 0.9 0.00 0.00 0.02 99 1010.8
20260509224532 60 0.0 0.0 0.00 0.00 0.02 99 1010.7
20260509224026 60 0.9 2.6 0.00 0.00 0.02 99 1010.8
20260509223520 60 0.9 3.5 0.00 0.00 0.02 99 1010.9
20260509223014 61 0.0 0.9 0.00 0.00 0.02 99 1010.8
20260509222508 61 0.0 0.9 0.00 0.00 0.02 99 1010.8
20260509222011 61 0.9 2.6 0.00 0.00 0.02 99 1010.8
20260509221456 61 1.7 5.2 0.00 0.00 0.02 99 1010.8
20260509220950 62 1.7 4.3 0.00 0.00 0.02 99 1010.9
20260509220444 62 0.9 1.7 0.00 0.00 0.02 99 1010.9
20260509215938 62 1.7 4.3 0.00 0.00 0.02 99 1010.9
20260509215431 62 2.6 7.0 0.00 0.00 0.02 99 1010.9
20260509214934 63 1.7 6.1 0.00 0.00 0.02 99 1010.9
20260509214419 63 2.6 7.0 0.00 0.00 0.02 99 1010.9
20260509213913 63 1.7 6.1 0.00 0.00 0.02 99 1011.0
20260509213407 63 2.6 7.0 0.00 0.00 0.02 99 1010.9
20260509212902 63 1.7 4.3 0.00 0.00 0.02 99 1010.8
20260509212356 64 2.6 7.8 0.00 0.00 0.02 99 1010.8
20260509211858 64 2.6 7.0 0.00 0.00 0.02 99 1010.9
20260509211344 64 1.7 6.1 0.00 0.00 0.02 99 1011.0
20260509210838 64 2.6 8.7 0.00 0.00 0.02 99 1011.1
20260509210332 64 2.6 8.7 0.00 0.00 0.02 99 1011.4
20260509205825 64 1.7 4.3 0.00 0.00 0.02 99 1011.5
20260509205319 64 1.7 6.1 0.00 0.00 0.02 99 1011.5
20260509204822 64 1.7 6.1 0.00 0.00 0.02 99 1011.3
20260509204307 64 0.9 2.6 0.00 0.00 0.02 99 1011.3
20260509203801 63 1.7 5.2 0.00 0.00 0.02 99 1011.2
20260509203256 63 4.3 13.0 0.00 0.00 0.02 99 1011.1
20260509202750 63 0.0 0.9 0.00 0.00 0.02 99 1011.0
20260509202244 64 0.0 0.0 0.00 0.00 0.02 99 1011.0
20260509201746 64 0.9 1.7 0.00 0.00 0.02 99 1010.9
20260509201231 64 0.0 0.0 0.00 0.00 0.02 99 1010.8
20260509200725 64 0.0 0.0 0.00 0.00 0.02 99 1010.8
20260509200219 64 0.0 0.0 0.00 0.00 0.02 99 1010.8
20260509195713 64 0.0 0.0 0.00 0.00 0.02 99 1010.8
20260509195207 65 0.0 0.0 0.00 0.00 0.02 99 1010.8
20260509194709 65 0.0 0.0 0.00 0.00 0.02 99 1010.8
20260509194154 65 0.0 0.0 0.00 0.00 0.02 99 1010.8
20260509193648 66 0.0 0.0 0.00 0.00 0.02 99 1010.7
20260509193142 66 0.0 0.0 0.00 0.00 0.02 99 1010.6
20260509192636 66 0.0 0.0 0.00 0.00 0.02 99 1010.6
20260509192130 67 0.0 0.0 0.00 0.00 0.02 99 1010.5
20260509191632 67 0.0 0.0 0.00 0.00 0.02 99 1010.4
20260509191117 67 0.0 0.0 0.00 0.00 0.02 99 1010.4
20260509190611 68 0.0 0.0 0.00 0.00 0.02 99 1010.3
20260509190106 68 0.0 0.0 0.00 0.00 0.02 99 1010.3
20260509185559 68 0.0 0.0 0.00 0.00 0.02 99 1010.3
20260509185053 69 0.0 0.9 0.00 0.00 0.02 99 1010.1
20260509184556 69 0.0 0.9 0.00 0.00 0.02 99 1010.2
20260509184041 69 0.0 0.0 0.00 0.00 0.02 99 1010.1
20260509183535 69 0.0 0.9 0.00 0.00 0.02 99 1010.1
20260509183029 69 0.9 1.7 0.00 0.00 0.02 99 1010.0
20260509182523 70 0.9 1.7 0.00 0.00 0.02 99 1010.0
20260509182017 70 0.0 0.9 0.00 0.00 0.02 99 1009.8
20260509181520 70 0.0 0.0 0.00 0.00 0.02 99 1009.8
20260509181005 69 0.0 0.0 0.00 0.00 0.02 99 1009.8
20260509180459 69 0.0 0.0 0.00 0.00 0.02 99 1009.6
20260509175953 69 0.0 0.9 0.00 0.00 0.02 99 1009.5
20260509175446 69 0.0 0.9 0.00 0.00 0.02 99 1009.4
20260509174940 71 0.9 3.5 0.00 0.00 0.02 99 1009.3
20260509174443 72 0.0 0.0 0.00 0.00 0.02 99 1009.4
20260509173928 72 0.0 0.0 0.00 0.00 0.02 99 1009.5
20260509173422 72 0.0 0.0 0.00 0.00 0.02 99 1009.4
20260509172916 72 0.9 1.7 0.00 0.00 0.02 99 1009.4
20260509172410 72 0.9 1.7 0.00 0.00 0.02 99 1009.3
20260509171904 72 0.9 1.7 0.00 0.00 0.02 99 1009.4
20260509171407 72 0.0 0.9 0.00 0.00 0.02 99 1009.4
20260509170852 72 0.0 0.9 0.00 0.00 0.02 99 1009.5
20260509170346 72 0.9 1.7 0.00 0.00 0.02 99 1009.5
20260509165839 72 0.9 1.7 0.00 0.00 0.02 99 1009.4
20260509165333 72 0.9 3.5 0.00 0.00 0.02 99 1009.3
20260509164828 73 2.6 7.0 0.00 0.00 0.02 99 1009.4
20260509164330 73 2.6 7.0 0.00 0.00 0.02 99 1009.5
20260509163815 73 1.7 5.2 0.00 0.00 0.02 99 1009.5
20260509163310 73 0.9 3.5 0.00 0.00 0.02 99 1009.5
20260509162805 73 0.9 1.7 0.00 0.00 0.02 99 1009.5
20260509162258 74 1.7 5.2 0.00 0.00 0.02 99 1009.5
20260509161751 75 2.6 7.8 0.00 0.00 0.02 99 1009.5
20260509161253 75 1.7 6.1 0.00 0.00 0.02 99 1009.5
20260509160738 76 0.9 1.7 0.00 0.00 0.02 99 1009.6
20260509160232 75 0.9 2.6 0.00 0.00 0.02 99 1009.7
20260509155725 75 0.0 0.0 0.00 0.00 0.02 99 1009.7
20260509155220 76 0.0 0.0 0.00 0.00 0.02 99 1009.7
20260509154714 77 0.0 0.0 0.00 0.00 0.02 99 1009.7
20260509154216 78 0.0 0.0 0.00 0.00 0.02 99 1009.6
20260509153701 78 0.0 0.9 0.00 0.00 0.02 99 1009.6
20260509153155 79 0.9 2.6 0.00 0.00 0.02 99 1009.5
20260509152649 79 0.9 3.5 0.00 0.00 0.02 99 1009.7
20260509152143 79 0.0 0.9 0.00 0.00 0.02 99 1009.7
20260509151637 80 1.7 5.2 0.00 0.00 0.02 99 1009.7
20260509151139 81 0.0 0.9 0.00 0.00 0.02 99 1009.7
20260509150624 82 0.9 1.7 0.00 0.00 0.02 99 1009.9
20260509150118 81 0.0 0.0 0.00 0.00 0.02 99 1009.9
20260509145612 80 0.9 3.5 0.00 0.00 0.02 99 1010.0
20260509145106 79 0.9 2.6 0.00 0.00 0.02 99 1010.0
20260509144600 76 0.0 0.0 0.00 0.00 0.02 99 1010.0
20260509144102 77 0.0 0.9 0.00 0.00 0.02 99 1010.1
20260509143041 73 0.0 0.0 0.00 0.00 0.02 99 1010.1
20260509142535 73 0.9 2.6 0.00 0.00 0.02 99 1010.0
20260509142029 74 0.0 0.0 0.00 0.00 0.02 99 1010.0
20260509141523 74 0.9 3.5 0.00 0.00 0.02 99 1010.0
20260509141026 73 0.9 3.5 0.00 0.00 0.02 99 1010.1
20260509140510 72 0.9 2.6 0.00 0.00 0.02 99 1010.0
20260509140006 72 0.9 3.5 0.00 0.00 0.02 99 1010.1
20260509135458 71 0.9 2.6 0.00 0.00 0.02 99 1010.1
20260509134952 72 1.7 6.1 0.00 0.00 0.02 99 1010.2
20260509134446 73 0.9 2.6 0.00 0.00 0.02 99 1010.2
20260509133948 74 0.9 2.6 0.00 0.00 0.02 99 1010.3
20260509133433 74 0.0 0.9 0.00 0.00 0.02 99 1010.3
20260509132928 74 0.0 0.9 0.00 0.00 0.02 99 1010.4
20260509132422 74 0.9 1.7 0.00 0.00 0.02 99 1010.4
20260509131916 73 0.0 0.9 0.00 0.00 0.02 99 1010.4
20260509131410 73 0.9 3.5 0.00 0.00 0.02 99 1010.4
20260509130912 74 0.9 2.6 0.00 0.00 0.02 99 1010.3
20260509130358 75 0.9 2.6 0.00 0.00 0.02 99 1010.2
20260509125852 74 0.0 0.0 0.00 0.00 0.02 99 1010.3
20260509125345 74 0.0 0.9 0.00 0.00 0.02 99 1010.4
20260509124839 74 0.0 0.9 0.00 0.00 0.02 99 1010.4
20260509124333 75 0.9 2.6 0.00 0.00 0.02 99 1010.5
20260509123836 75 0.9 1.7 0.00 0.00 0.02 99 1010.5
20260509123321 74 0.9 3.5 0.00 0.00 0.02 99 1010.6
20260509122815 73 1.7 5.2 0.00 0.00 0.02 99 1010.6
20260509122309 74 1.7 6.1 0.00 0.00 0.02 99 1010.8
20260509121803 75 0.9 2.6 0.00 0.00 0.02 99 1010.8
20260509121257 76 1.7 4.3 0.00 0.00 0.02 99 1010.9
20260509120800 75 0.0 0.9 0.00 0.00 0.02 99 1010.9
20260509120245 75 0.9 1.7 0.00 0.00 0.02 99 1011.0
20260509115738 75 0.0 0.9 0.02 0.00 0.02 99 1011.1
20260509115232 74 0.9 2.6 0.02 0.00 0.02 99 1011.1
20260509114726 74 0.9 2.6 0.02 0.00 0.02 99 1011.1
20260509114220 75 1.7 4.3 0.02 0.00 0.02 99 1011.2
20260509113723 74 1.7 4.3 0.02 0.00 0.02 99 1011.2
20260509113208 73 0.0 0.9 0.02 0.00 0.02 99 1011.2
20260509112701 74 0.9 2.6 0.02 0.00 0.02 99 1011.2
20260509112155 73 0.9 1.7 0.00 0.00 0.00 99 1011.2
20260509111649 73 0.9 1.7 0.00 0.00 0.00 99 1011.2
20260509111143 74 0.9 3.5 0.00 0.00 0.00 99 1011.2
20260509110646 73 0.0 0.9 0.00 0.00 0.00 99 1011.2
20260509110131 74 1.7 4.3 0.00 0.00 0.00 99 1011.1
20260509105624 74 0.9 2.6 0.00 0.00 0.00 99 1011.1
20260509105118 73 0.9 2.6 0.00 0.00 0.00 99 1011.0
20260509104612 73 0.9 3.5 0.00 0.00 0.00 99 1011.1
20260509104108 73 2.6 7.0 0.00 0.00 0.00 99 1011.1
20260509103608 72 1.7 6.1 0.00 0.00 0.00 99 1011.0
20260509103053 73 2.6 8.7 0.00 0.00 0.00 99 1011.0
20260509102548 73 3.5 9.6 0.00 0.00 0.00 99 1010.9
20260509102042 72 1.7 6.1 0.00 0.00 0.00 99 1011.0
20260509101536 73 1.7 4.3 0.00 0.00 0.00 99 1011.0
20260509101030 74 1.7 5.2 0.00 0.00 0.00 99 1011.0
20260509100532 74 2.6 7.0 0.00 0.00 0.00 99 1011.1
20260509100018 74 2.6 7.0 0.00 0.00 0.00 99 1011.1
20260509095511 72 1.7 5.2 0.00 0.00 0.00 99 1011.1
20260509095005 72 0.9 3.5 0.00 0.00 0.00 99 1011.1
20260509094458 70 1.7 4.3 0.00 0.00 0.00 99 1011.2
20260509093953 69 1.7 5.2 0.00 0.00 0.00 99 1011.3
20260509093455 70 1.7 4.3 0.00 0.00 0.00 99 1011.3
20260509092940 70 0.9 1.7 0.00 0.00 0.00 99 1011.3
20260509092434 69 0.9 2.6 0.00 0.00 0.00 99 1011.4
20260509091928 68 0.9 2.6 0.00 0.00 0.00 99 1011.4
20260509091423 69 1.7 4.3 0.00 0.00 0.00 99 1011.5
20260509090917 68 0.9 1.7 0.00 0.00 0.00 99 1011.5
20260509090419 68 0.9 3.5 0.00 0.00 0.00 99 1011.5
20260509085904 67 1.7 4.3 0.00 0.00 0.00 99 1011.5
20260509085357 66 1.7 4.3 0.00 0.00 0.00 99 1011.6
20260509084851 67 1.7 5.2 0.00 0.00 0.00 99 1011.7
20260509084345 66 0.0 0.9 0.00 0.00 0.00 99 1011.7
20260509083840 65 0.0 0.0 0.00 0.00 0.00 99 1011.8
20260509083342 63 0.9 1.7 0.00 0.00 0.00 99 1011.8
20260509082828 63 1.7 6.1 0.00 0.00 0.00 99 1011.8
20260509082322 63 2.6 7.0 0.00 0.00 0.00 99 1011.7
20260509081816 63 1.7 6.1 0.00 0.00 0.00 99 1011.8
20260509081309 63 0.9 1.7 0.00 0.00 0.00 99 1011.9
20260509080803 64 0.9 3.5 0.00 0.00 0.00 99 1012.0
20260509080306 64 0.9 2.6 0.00 0.00 0.00 99 1012.1
20260509075750 64 0.9 3.5 0.00 0.00 0.00 99 1012.2
20260509075244 64 0.9 3.5 0.00 0.00 0.00 99 1012.2
20260509074738 65 2.6 7.0 0.00 0.00 0.00 99 1012.3
20260509074232 66 1.7 5.2 0.00 0.00 0.00 99 1012.3
20260509073726 65 0.9 3.5 0.00 0.00 0.00 99 1012.2
20260509073227 62 0.0 0.9 0.00 0.00 0.00 99 1012.1
20260509072713 60 0.0 0.0 0.00 0.00 0.00 99 1012.1
20260509072207 59 0.0 0.0 0.00 0.00 0.00 99 1012.2
20260509071701 58 0.0 0.0 0.00 0.00 0.00 99 1012.1
20260509071155 58 0.0 0.9 0.00 0.00 0.00 99 1012.0
20260509070649 57 0.0 0.0 0.00 0.00 0.00 99 1011.9
20260509070152 57 0.0 0.9 0.00 0.00 0.00 99 1011.9